sat.trackr.live / text

‹ back to catalog

GPS BIIF-3 (PRN 24)

NORAD 38833 · 2012-053A

PAYLOAD ACTIVE UNKNOWN

§ Identity

Operator
Country
US
Launch date
2012-10-04
Launch site
AFETR
Launch vehicle
Mass (kg)
RCS (m²)
5.47

Purposes: earth_obs, nav

External: N2YO · Heavens-Above · Gunter

§ Orbital elements

Epoch: 2026-05-24T09:14:28.298400Z

Period
717.96 min
Inclination
53.5811°
Eccentricity
0.0179096
Mean motion
2.00567085 rev/d
Perigee alt
19,706.2 km
Apogee alt
20,657.6 km
Semi-major
26,560.0 km
B*
0.0000e+0
RAAN
144.5742°
Arg perigee
65.4338°
Mean anomaly
296.4391°
Rev number
9,896

§ Raw data

GPS BIIF-3  (PRN 24)1 38833U 12053A   26144.38504975  .00000083  00000+0  00000+0 0  99932 38833  53.5811 144.5742 0179096  65.4338 296.4391  2.00567085 98967

JSON: /api/v1/satellites/38833 · /tle

For live sub-satellite position, see the globe view (requires WebGL).

§ Visibility from observer

Set your observer location to see the next 7 days of passes ≥ 10°. The values pass through the URL so the page stays shareable.

No JS? Fill the form by hand. The geolocation button needs JavaScript.